Regional Weather Roundup
Issued by NWS Cleveland, OH

Home | Current Version | Previous Version | Text Only | Print | Product List | Glossary On
Versions: 1 2 3 4 5 6 7 8 9 10 11 12 13 14 15 16 17 18 19 20 21 22 23 24 25 26 27 28 29 30 31 32 33 34 35 36 37 38 39 40 41 42 43 44 45 46 47 48 49 50
000
ASUS41 KCLE 281610
RWRCLE
OHIO REGIONAL WEATHER ROUNDUP
NATIONAL WEATHER SERVICE CLEVELAND, OH
1200 PM EDT TUE APR 28 2015

NOTE: "FAIR" INDICATES FEW OR NO CLOUDS BELOW 12,000 FEET WITH NO
SIGNIFICANT WEATHER AND/OR OBSTRUCTIONS TO VISIBILITY.

OHZ001>008-015>018-024>027-034-035-043-044-281700-
   NORTHWEST OHIO

CITY           SKY/WX    TMP DP  RH WIND       PRES   REMARKS
DEFIANCE       SUNNY     58  37  45 NW9       30.14F
FINDLAY        MOSUNNY   56  37  49 N9        30.12F
TOLEDO EXPRESS SUNNY     55  35  47 NW12      30.13F
TOLEDO EXEC    SUNNY     56  34  43 N7        30.14F
LIMA           MOSUNNY   52  37  56 VRB3      30.13F
$$

OHZ009>014-019>023-028>033-038-089-281700-
   NORTHEAST OHIO

CITY           SKY/WX    TMP DP  RH WIND       PRES   REMARKS
CLE-HOPKINS    MOSUNNY   50  37  61 NW9       30.15S
CLE-LAKEFRONT  SUNNY     45  37  73 W7        30.13S
CUY CO. ARPT   MOSUNNY   50  39  66 W8        30.13S
LORAIN-ELYRIA  SUNNY     50  37  61 N14       30.13S
ASHTABULA      SUNNY     50  36  58 NW12G18   30.10S
AKRON-CANTON   MOSUNNY   55  34  45 N10G18    30.09F
WOOSTER        SUNNY     53  37  54 N12       30.11S
MANSFIELD      SUNNY     53  35  50 N15       30.11F
YOUNGSTOWN     PTSUNNY   53  36  52 NW15      30.08S
$$

OHZ042-051>053-060>062-070>072-077>081-281700-
  SOUTHWEST OHIO

CITY           SKY/WX    TMP DP  RH WIND       PRES   REMARKS
CINC-COVINGTON MOSUNNY   55  36  48 NE10      30.11F
CINC-LUNKEN    SUNNY     56  38  50 VRB6      30.12F
HAMILTON       SUNNY     56  37  49 VRB7      30.13F
DAYTON         MOSUNNY   55  36  48 VRB7      30.13F
WRIGHT-PAT AFB MOSUNNY   54  35  48 NE6       30.12F
DAYTON GENERAL MOSUNNY   54  36  50 VRB3      30.11F
WILMINGTON     MOSUNNY   53  35  50 NE9       30.11F
$$

OHZ036-037-039>041-045>050-054>059-063>069-073>076-082>088-281700-
  CENTRAL AND SOUTHEAST OHIO

CITY           SKY/WX    TMP DP  RH WIND       PRES   REMARKS
COLUMBUS       MOSUNNY   55  36  48 N10       30.11F
OSU AIRPORT    SUNNY     54  36  50 N8        30.11F
BOLTON FIELD   SUNNY     54  37  54 N8        30.12F
RICKENBACK AFB SUNNY     54  36  51 CALM      30.11F
NEWARK         SUNNY     56  36  47 NW8       30.10F
MARION         SUNNY     54  35  48 N14       30.12F
LANCASTER      SUNNY     56  37  49 N6        30.11F
ZANESVILLE     SUNNY     55  37  50 NW8       30.10F
NEW PHILLY     SUNNY     57  36  45 N8        30.10F
$$


USA.gov is the U.S. government's official web portal to all federal, state and local government web resources and services.